GW4642 Weather Reports


time (UTC)temp
F
wind
direction
speed
knots
gust
knots
rain 1hr
in
rain 24hr
in
rain mn
in
humidity
%
barometer
mb
20260906114016 75 207 0.0 1.7 0.00 0.06 0.06 94 1013.5
20260906113514 75 202 0.0 0.9 0.00 0.06 0.06 94 1013.3
20260906113010 76 131 0.9 1.7 0.00 0.06 0.06 94 1013.4
20260906112504 75 214 0.9 2.6 0.00 0.06 0.06 94 1013.4
20260906112001 76 220 1.7 2.6 0.00 0.06 0.06 94 1013.3
20260906111500 75 166 0.0 3.5 0.00 0.06 0.06 94 1013.4
20260906110955 75 145 2.6 2.6 0.00 0.06 0.06 95 1013.4
20260906110450 75 115 0.0 3.5 0.00 0.06 0.06 97 1013.3
20260906105949 75 154 1.7 2.6 0.00 0.06 0.06 97 1013.2
20260906105445 75 89 0.0 1.7 0.00 0.06 0.06 97 1013.1
20260906104941 76 242 0.0 0.9 0.00 0.06 0.06 97 1012.7
20260906104439 75 269 0.0 0.9 0.00 0.06 0.06 97 1012.7
20260906103939 76 147 0.0 1.7 0.00 0.06 0.06 97 1012.5
20260906103437 75 208 0.0 1.7 0.00 0.06 0.06 98 1012.6
20260906102932 75 79 0.0 0.9 0.00 0.06 0.06 98 1012.6
20260906102432 75 179 0.0 1.7 0.00 0.06 0.06 98 1012.7
20260906101927 75 223 0.9 1.7 0.00 0.06 0.06 98 1012.8
20260906101422 75 150 0.0 0.9 0.00 0.06 0.06 98 1012.7
20260906100918 75 162 0.9 0.9 0.00 0.06 0.06 97 1012.6
20260906100417 75 102 0.0 0.9 0.00 0.06 0.06 97 1012.7
20260906095912 76 143 0.0 0.9 0.00 0.06 0.06 97 1012.8
20260906095408 76 121 0.9 0.9 0.00 0.06 0.06 96 1012.7
20260906094908 76 143 0.0 1.7 0.00 0.06 0.06 96 1012.5
20260906094403 76 105 0.0 0.9 0.00 0.06 0.06 97 1012.5
20260906093859 76 164 0.0 1.7 0.00 0.06 0.06 96 1012.5
20260906093354 76 1 0.9 0.9 0.00 0.06 0.06 96 1012.4
20260906092848 76 5 0.0 0.9 0.00 0.06 0.06 96 1012.5
20260906092343 76 358 0.0 0.9 0.00 0.06 0.06 96 1012.3
20260906091839 76 242 0.0 0.0 0.00 0.06 0.06 96 1012.4
20260906091335 77 195 0.0 0.9 0.00 0.06 0.06 96 1012.5
20260906090826 77 341 0.0 0.0 0.00 0.06 0.06 95 1012.5
20260906090325 77 154 0.0 0.0 0.00 0.06 0.06 94 1012.5
20260906085824 77 164 0.0 0.0 0.00 0.06 0.06 94 1012.4
20260906085323 77 89 0.0 0.0 0.00 0.06 0.06 93 1012.8
20260906084818 77 124 0.0 0.9 0.00 0.06 0.06 94 1012.5
20260906084318 76 193 0.0 1.7 0.00 0.06 0.06 97 1012.7
20260906083813 76 113 0.0 0.0 0.00 0.06 0.06 97 1012.3
20260906083308 76 103 0.0 0.0 0.00 0.06 0.06 97 1012.3
20260906082803 76 37 0.0 0.0 0.00 0.06 0.06 97 1012.2
20260906082258 76 49 0.0 0.9 0.00 0.06 0.06 97 1012.2
20260906081754 76 129 0.0 0.0 0.00 0.06 0.06 97 1012.3
20260906081249 76 129 0.0 0.0 0.00 0.06 0.06 97 1012.2
20260906080745 76 343 0.0 0.0 0.00 0.06 0.06 96 1012.3
20260906080242 76 19 0.0 0.0 0.00 0.06 0.06 96 1012.1
20260906075741 76 89 0.0 1.7 0.00 0.06 0.06 96 1011.9
20260906075236 76 297 0.0 0.0 0.00 0.06 0.06 95 1011.8
20260906074731 76 297 0.0 0.0 0.02 0.06 0.06 94 1011.8
20260906074230 76 255 0.0 0.0 0.02 0.06 0.06 93 1012.0
20260906073730 77 180 0.0 0.0 0.00 0.05 0.05 92 1012.0
20260906073226 78 229 0.0 0.0 0.00 0.05 0.05 90 1011.9
20260906072721 78 6 0.0 0.9 0.02 0.05 0.05 88 1011.9
20260906072217 79 359 0.9 1.7 0.19 0.05 0.05 85 1011.8
20260906071713 80 324 1.7 1.7 0.21 0.04 0.04 81 1011.9
20260906071212 79 225 0.0 1.7 0.12 0.02 0.02 86 1012.0
20260906070709 80 269 0.0 2.6 0.05 0.01 0.01 90 1012.1
20260906070204 79 344 0.9 0.9 0.00 0.00 0.00 90 1012.2
20260906065703 79 343 0.0 0.0 0.00 0.00 0.00 91 1012.3
20260906065159 79 284 0.0 0.0 0.00 0.00 0.00 91 1012.2
20260906064654 79 312 0.0 0.0 0.00 0.00 0.00 91 1012.2
20260906064149 79 333 0.0 0.9 0.00 0.00 0.00 91 1012.2
20260906063644 79 329 0.0 0.0 0.00 0.00 0.00 92 1012.2
20260906063140 79 217 0.0 0.0 0.00 0.00 0.00 92 1012.3
20260906062637 79 242 0.0 0.0 0.00 0.00 0.00 92 1012.4
20260906062135 79 230 0.0 0.0 0.00 0.00 0.00 91 1012.5
20260906061632 79 293 0.0 0.0 0.00 0.00 0.00 91 1012.3
20260906061131 79 322 0.0 0.0 0.00 0.00 0.00 90 1012.3
20260906060628 79 305 0.0 0.0 0.00 0.00 0.00 89 1012.4
20260906060125 80 329 0.0 0.0 0.00 0.00 0.00 89 1012.5
20260906055620 80 258 0.0 0.9 0.00 0.00 0.00 88 1012.5
20260906055115 80 283 0.0 0.0 0.00 0.00 0.00 88 1012.5
20260906054610 80 352 0.0 0.9 0.00 0.00 0.00 88 1012.4
20260906054105 80 333 0.0 1.7 0.00 0.00 0.00 88 1012.5
20260906053602 80 333 0.0 0.9 0.00 0.00 0.00 88 1012.6
20260906053057 80 333 0.0 0.0 0.00 0.00 0.00 87 1012.5
20260906052552 80 0 0.0 0.0 0.00 0.00 0.00 86 1012.4
20260906052049 80 246 0.0 0.0 0.00 0.00 0.00 86 1012.5
20260906051544 80 306 0.0 0.0 0.00 0.00 0.00 86 1012.6
20260906051040 80 332 1.7 1.7 0.00 0.00 0.00 87 1012.6
20260906050535 80 302 0.0 0.0 0.00 0.00 0.00 87 1012.5
20260906050030 80 297 0.0 0.0 0.00 0.00 0.00 87 1012.5
20260906045528 80 333 0.0 0.0 0.00 0.00 0.00 87 1012.9
20260906045024 80 322 0.0 0.0 0.00 0.00 0.00 87 1012.8
20260906044519 80 330 0.0 0.0 0.00 0.00 0.00 86 1012.8
20260906044015 80 297 0.0 0.0 0.00 0.00 0.00 87 1012.6
20260906043510 80 297 0.0 0.9 0.00 0.00 0.00 86 1012.7
20260906043007 80 205 0.0 0.0 0.00 0.00 0.00 87 1012.8
20260906042505 80 205 0.0 0.0 0.00 0.00 0.00 87 1012.8
20260906042005 80 205 0.0 0.0 0.00 0.00 0.00 87 1012.6
20260906041501 80 205 0.0 0.0 0.00 0.00 0.00 87 1012.7
20260906041001 81 205 0.0 0.0 0.00 0.00 0.00 87 1012.7
20260906040456 81 230 0.0 0.0 0.00 0.00 0.00 85 1012.7
20260906035951 81 293 0.0 0.0 0.00 0.00 0.00 84 1012.6
20260906035446 82 293 0.0 0.0 0.00 0.00 0.00 83 1012.7
20260906034942 82 297 0.0 0.0 0.00 0.00 0.00 84 1012.6
20260906034436 82 217 0.0 0.0 0.00 0.00 0.00 85 1012.6
20260906033927 82 217 0.0 0.0 0.00 0.00 0.00 84 1012.7
20260906033426 81 322 0.0 0.9 0.00 0.00 0.00 84 1012.7
20260906032922 81 224 0.0 0.0 0.00 0.00 0.00 86 1012.5
20260906032418 81 227 0.0 0.9 0.00 0.00 0.00 86 1012.5
20260906031912 81 214 0.0 0.9 0.00 0.00 0.00 86 1012.4
20260906031408 81 217 0.0 0.0 0.00 0.00 0.00 85 1012.6
20260906030858 81 217 0.0 0.0 0.00 0.00 0.00 85 1012.5
20260906030352 81 217 0.0 0.0 0.00 0.00 0.00 85 1012.4
20260906025847 82 197 0.0 0.9 0.00 0.00 0.00 84 1012.5
20260906025341 82 195 0.0 0.0 0.00 0.00 0.00 83 1012.3
20260906024840 82 229 0.0 0.9 0.00 0.00 0.00 83 1012.1
20260906024339 82 205 0.0 0.0 0.00 0.00 0.00 82 1012.1
20260906023835 82 224 0.0 0.0 0.00 0.00 0.00 81 1012.1
20260906023331 83 225 0.0 0.9 0.00 0.00 0.00 81 1012.1
20260906022826 83 235 0.0 0.9 0.00 0.00 0.00 81 1012.2
20260906022321 82 194 0.0 0.9 0.00 0.00 0.00 83 1012.1
20260906021817 82 252 0.0 0.9 0.00 0.00 0.00 84 1012.1
20260906021315 82 202 0.0 0.0 0.00 0.00 0.00 83 1012.0
20260906020810 82 212 0.0 0.0 0.00 0.00 0.00 83 1012.0
20260906020309 82 205 0.0 0.0 0.00 0.00 0.00 82 1012.0
20260906015804 83 205 0.0 0.0 0.00 0.00 0.00 82 1012.0
20260906015305 83 202 0.0 0.0 0.00 0.00 0.00 82 1012.1
20260906014802 83 202 0.0 0.0 0.00 0.00 0.00 81 1012.0
20260906014258 83 202 0.0 0.0 0.00 0.00 0.00 81 1012.1
20260906013755 83 202 0.0 0.0 0.00 0.00 0.00 81 1011.9
20260906013255 83 202 0.0 0.0 0.00 0.00 0.00 80 1011.8
20260906012750 83 202 0.0 0.0 0.00 0.00 0.00 79 1011.8
20260906012245 83 202 0.0 0.0 0.00 0.00 0.00 79 1011.7
20260906011740 84 202 0.0 0.0 0.00 0.00 0.00 78 1011.8
20260906011239 84 202 0.0 0.0 0.00 0.00 0.00 78 1011.7
20260906010735 84 202 0.0 0.0 0.00 0.00 0.00 78 1011.5
20260906010232 85 202 0.0 0.0 0.00 0.00 0.00 77 1011.5
20260906005727 85 202 0.0 0.0 0.00 0.00 0.00 76 1011.6
20260906005226 85 202 0.0 0.0 0.00 0.00 0.00 76 1011.5
20260906004725 85 202 0.0 0.0 0.00 0.00 0.00 75 1011.5
20260906004220 86 202 0.0 0.0 0.00 0.00 0.00 74 1011.4
20260906003715 86 202 0.0 0.0 0.00 0.00 0.00 73 1011.5
20260906003211 87 195 0.0 0.0 0.00 0.00 0.00 72 1011.5
20260906002706 87 242 0.0 0.0 0.00 0.00 0.00 70 1011.6
20260906002201 88 284 0.0 0.0 0.00 0.00 0.00 68 1011.6
20260906001655 88 309 0.0 0.0 0.00 0.00 0.00 67 1011.6
20260906001155 89 297 0.0 0.0 0.00 0.00 0.00 66 1011.6
20260906000651 89 284 0.0 0.0 0.00 0.00 0.00 66 1011.6
20260906000146 90 269 0.0 0.0 0.00 0.00 0.00 66 1011.8
20260905235645 90 269 0.0 0.0 0.00 0.00 0.00 64 1011.6
20260905235140 90 269 0.0 0.9 0.00 0.00 0.00 65 1011.8
20260905234635 91 290 0.0 0.0 0.00 0.00 0.00 64 1011.6
20260905234132 91 269 0.0 0.0 0.00 0.00 0.00 62 1011.7
20260905233631 91 269 0.0 0.0 0.00 0.00 0.00 63 1011.8
20260905233125 92 269 0.0 0.9 0.00 0.00 0.00 62 1011.7
20260905232621 93 293 0.0 0.0 0.00 0.00 0.00 59 1011.7
20260905232117 94 62 0.0 0.0 0.00 0.00 0.00 58 1011.5
20260905231617 94 62 0.0 0.0 0.00 0.00 0.00 55 1011.7
20260905231113 95 217 0.0 0.9 0.00 0.00 0.00 55 1011.6
20260905230609 95 164 0.0 0.0 0.00 0.00 0.00 52 1011.7
20260905230107 95 181 0.9 0.9 0.00 0.00 0.00 51 1011.7
20260905225606 96 345 0.0 1.7 0.00 0.00 0.00 52 1011.7
20260905225102 96 192 0.9 0.9 0.00 0.00 0.00 51 1011.6
20260905224601 96 180 0.0 0.0 0.00 0.00 0.00 51 1011.6
20260905224101 96 129 0.0 0.9 0.00 0.00 0.00 51 1011.8
20260905223558 96 228 0.0 0.9 0.00 0.00 0.00 50 1011.5
20260905223054 97 353 0.0 0.9 0.00 0.00 0.00 51 1011.5
20260905222554 97 284 0.0 1.7 0.00 0.00 0.00 51 1011.6
20260905222049 97 49 0.0 1.7 0.00 0.00 0.00 50 1011.6
20260905221545 98 322 0.0 0.9 0.00 0.00 0.00 50 1011.7
20260905221041 98 295 0.0 0.9 0.00 0.00 0.00 49 1011.5
20260905220537 100 9 0.0 1.7 0.00 0.00 0.00 48 1011.6
20260905220033 101 212 0.0 0.9 0.00 0.00 0.00 48 1011.8
20260905215532 98 233 0.0 0.0 0.00 0.00 0.00 54 1011.8
20260905215028 97 246 0.9 1.7 0.00 0.00 0.00 57 1011.8
20260905214524 96 219 0.0 0.0 0.00 0.00 0.00 51 1012.0
20260905214019 96 202 0.0 0.9 0.00 0.00 0.00 56 1012.0
20260905213514 96 269 0.0 0.0 0.00 0.00 0.00 51 1012.0
20260905213010 96 297 0.0 0.9 0.00 0.00 0.00 54 1012.0
20260905212459 97 333 0.0 0.0 0.00 0.00 0.00 53 1011.9
20260905211958 97 269 0.0 0.0 0.00 0.00 0.00 50 1011.9
20260905211454 98 315 0.0 1.7 0.00 0.00 0.00 51 1011.8
20260905210949 99 239 0.0 0.9 0.00 0.00 0.00 48 1011.7
20260905210445 100 323 0.0 2.6 0.00 0.00 0.00 47 1011.8
20260905205944 104 248 0.0 1.7 0.00 0.00 0.00 45 1011.9
20260905205439 103 291 0.9 1.7 0.00 0.00 0.00 44 1012.1
20260905204938 103 227 0.0 1.7 0.00 0.00 0.00 42 1012.0
20260905204434 103 20 0.0 1.7 0.00 0.00 0.00 42 1011.9
20260905203932 102 262 0.9 1.7 0.00 0.00 0.00 43 1012.2
20260905203429 101 325 1.7 1.7 0.00 0.00 0.00 44 1012.2
20260905202924 100 238 0.0 2.6 0.00 0.00 0.00 45 1012.0
20260905202419 101 289 1.7 3.5 0.00 0.00 0.00 44 1012.3
20260905201915 102 246 0.0 2.6 0.00 0.00 0.00 45 1012.4
20260905201409 102 297 1.7 2.6 0.00 0.00 0.00 43 1012.5
20260905200904 102 241 1.7 2.6 0.00 0.00 0.00 46 1012.5
20260905200400 100 219 0.9 1.7 0.00 0.00 0.00 46 1012.7
20260905195857 99 249 0.0 4.3 0.00 0.00 0.00 47 1012.6
20260905195353 100 239 1.7 2.6 0.00 0.00 0.00 46 1012.7
20260905194848 101 154 0.0 2.6 0.00 0.00 0.00 48 1012.8
20260905194347 102 222 1.7 3.5 0.00 0.00 0.00 46 1012.8
20260905193842 102 101 0.9 1.7 0.00 0.00 0.00 45 1012.7
20260905193337 102 225 0.0 3.5 0.00 0.00 0.00 44 1012.9
20260905192833 101 348 0.9 2.6 0.00 0.00 0.00 46 1013.0
20260905192328 101 341 1.7 4.3 0.00 0.00 0.00 47 1013.4
20260905191827 102 283 1.7 1.7 0.00 0.00 0.00 42 1013.2
20260905191326 101 217 0.0 3.5 0.00 0.00 0.00 46 1013.2
20260905190824 101 284 0.0 2.6 0.00 0.00 0.00 45 1013.6
20260905190319 100 329 1.7 1.7 0.00 0.00 0.00 44 1013.5
20260905185818 101 35 1.7 2.6 0.00 0.00 0.00 45 1013.7
20260905185313 99 317 2.6 3.5 0.00 0.00 0.00 48 1013.6
20260905184807 100 297 0.9 1.7 0.00 0.00 0.00 45 1013.7
20260905184305 100 312 1.7 4.3 0.00 0.00 0.00 46 1013.7
20260905183759 98 273 0.0 1.7 0.00 0.00 0.00 49 1013.6
20260905183255 99 310 2.6 3.5 0.00 0.00 0.00 47 1013.9
20260905182754 100 352 0.0 1.7 0.00 0.00 0.00 46 1013.8
20260905182253 101 224 0.0 2.6 0.00 0.00 0.00 48 1013.9
20260905181749 100 267 0.9 2.6 0.00 0.00 0.00 47 1013.8
20260905181243 100 309 1.7 2.6 0.00 0.00 0.00 45 1013.9
20260905180737 98 205 0.9 2.6 0.00 0.00 0.00 47 1013.8
20260905180232 98 325 2.6 2.6 0.00 0.00 0.00 47 1014.1
20260905175733 96 345 0.0 1.7 0.00 0.00 0.00 48 1013.9
20260905175233 95 351 0.0 1.7 0.00 0.00 0.00 51 1014.1
20260905174722 96 217 0.9 1.7 0.00 0.00 0.00 54 1014.2
20260905174218 97 224 0.9 1.7 0.00 0.00 0.00 54 1014.1
20260905173714 97 232 0.0 1.7 0.00 0.00 0.00 56 1014.1
20260905173209 97 224 0.0 1.7 0.00 0.00 0.00 55 1014.1
20260905172709 97 219 1.7 2.6 0.00 0.00 0.00 54 1014.1
20260905172203 97 322 0.9 2.6 0.00 0.00 0.00 54 1014.3
20260905171659 97 243 0.0 4.3 0.00 0.00 0.00 53 1014.2
20260905171155 97 203 2.6 3.5 0.00 0.00 0.00 53 1014.3
20260905170653 97 205 1.7 2.6 0.00 0.00 0.00 54 1014.2
20260905170152 96 217 6.1 6.1 0.00 0.00 0.00 54 1014.6
20260905165651 96 302 0.9 2.6 0.00 0.00 0.00 52 1014.5
20260905165147 97 217 1.7 3.5 0.00 0.00 0.00 52 1014.6
20260905164642 97 210 3.5 4.3 0.00 0.00 0.00 54 1014.7
20260905164141 97 190 1.7 1.7 0.00 0.00 0.00 53 1014.6
20260905163637 95 234 1.7 3.5 0.00 0.00 0.00 55 1014.7
20260905163134 95 172 0.9 1.7 0.00 0.00 0.00 56 1014.7
20260905162630 96 186 0.9 2.6 0.00 0.00 0.00 57 1015.0
20260905162129 96 168 1.7 2.6 0.00 0.00 0.00 55 1014.9
20260905161628 97 210 1.7 3.5 0.00 0.00 0.00 55 1014.7
20260905161126 96 164 0.9 3.5 0.00 0.00 0.00 55 1014.9
20260905160621 97 175 0.9 2.6 0.00 0.00 0.00 55 1014.9
20260905160120 97 237 0.9 2.6 0.00 0.00 0.00 58 1015.0
20260905155615 96 275 0.0 2.6 0.00 0.00 0.00 57 1014.8
20260905155114 94 230 2.6 3.5 0.00 0.00 0.00 61 1015.0
20260905154609 95 215 0.9 3.5 0.00 0.00 0.00 61 1015.1
20260905154104 97 300 1.7 1.7 0.00 0.00 0.00 58 1015.1
20260905153600 97 242 0.0 0.9 0.00 0.00 0.00 57 1015.0
20260905153054 95 237 0.9 2.6 0.00 0.00 0.00 58 1015.1
20260905152549 95 230 0.0 2.6 0.00 0.00 0.00 59 1015.3
20260905152044 93 258 0.9 2.6 0.00 0.00 0.00 60 1015.3
20260905151539 92 250 0.9 1.7 0.00 0.00 0.00 66 1015.3
20260905151034 92 330 0.0 1.7 0.00 0.00 0.00 68 1015.3
20260905150530 91 218 1.7 1.7 0.00 0.00 0.00 68 1015.3
20260905150028 93 216 1.7 2.6 0.00 0.00 0.00 68 1015.4
20260905145521 93 228 1.7 1.7 0.00 0.00 0.00 65 1015.4
20260905145021 94 244 0.0 0.9 0.00 0.00 0.00 63 1015.1
20260905144516 92 205 0.0 1.7 0.00 0.00 0.00 67 1015.3
20260905144015 92 225 1.7 1.7 0.00 0.00 0.00 68 1015.3
20260905143514 92 299 0.0 0.9 0.00 0.00 0.00 65 1015.3
20260905143009 91 251 1.7 1.7 0.00 0.00 0.00 68 1015.1
20260905142508 89 160 0.0 0.0 0.00 0.00 0.00 71 1015.1
20260905142003 89 174 0.0 1.7 0.00 0.00 0.00 71 1015.0
20260905141457 89 183 0.0 1.7 0.00 0.00 0.00 72 1015.0
20260905140954 91 201 0.0 0.0 0.00 0.00 0.00 68 1015.0
20260905140449 89 104 0.0 0.9 0.00 0.00 0.00 71 1015.3
20260905135947 86 154 0.0 1.7 0.00 0.00 0.00 75 1015.0
20260905135443 86 218 0.0 0.9 0.00 0.00 0.00 76 1015.0
20260905134939 84 169 0.9 1.7 0.00 0.00 0.00 81 1015.0
20260905134438 84 202 0.9 0.9 0.00 0.00 0.00 81 1015.1
20260905133937 84 217 0.0 0.9 0.00 0.00 0.00 82 1015.0
20260905133432 84 164 0.9 0.9 0.00 0.00 0.00 79 1015.0
20260905132932 84 162 0.9 1.7 0.00 0.00 0.00 78 1015.0
20260905132427 85 212 0.0 0.0 0.00 0.00 0.00 77 1014.9
20260905131922 84 156 0.0 1.7 0.00 0.00 0.00 80 1015.0
20260905131418 84 166 1.7 1.7 0.00 0.00 0.00 79 1015.3
20260905130912 83 150 0.0 0.9 0.00 0.00 0.00 82 1015.1
20260905130412 82 173 0.9 0.9 0.00 0.00 0.00 84 1014.9
20260905125906 81 0 0.0 0.9 0.00 0.00 0.00 86 1014.9
20260905125406 79 19 0.0 0.9 0.00 0.00 0.00 92 1015.1
20260905124902 78 180 0.0 1.7 0.00 0.00 0.00 93 1014.8
20260905124359 77 180 0.0 1.7 0.00 0.00 0.00 94 1014.8
20260905123858 77 126 0.0 0.9 0.00 0.00 0.00 95 1014.8
20260905123355 76 315 0.0 0.9 0.00 0.00 0.00 96 1014.7
20260905122851 76 180 0.9 1.7 0.00 0.00 0.00 98 1014.7
20260905122350 75 202 0.0 1.7 0.00 0.00 0.00 99 1014.6
20260905121845 75 89 0.0 0.9 0.00 0.00 0.00 99 1014.7
20260905121341 74 119 0.0 0.9 0.00 0.00 0.00 99 1014.7
20260905120840 74 113 0.0 0.0 0.00 0.00 0.00 99 1014.9
20260905120340 74 269 0.0 0.9 0.00 0.00 0.00 99 1014.8
20260905115835 74 116 0.0 0.9 0.00 0.00 0.00 99 1014.7
20260905115334 74 34 0.0 0.9 0.00 0.00 0.00 99 1014.5
20260905114829 74 154 0.0 0.9 0.00 0.00 0.00 99 1014.5
20260905114329 73 76 0.0 0.0 0.00 0.00 0.00 99 1014.2